Tracking 23762 objects as of 19-Oct-2021
HD Live streaming from Space Station
objects crossing your sky now

ARIANE 44L+ R/B

Track ARIANE 44L+ R/B now!


NORAD ID: 23177
Int'l Code: 1994-040C
Perigee: 404.9 km
Apogee: 35,379.3 km
Inclination: 7.6 °
Period: 626.9 minutes
Semi major axis: 24263 km
RCS: 21.1995 m2 (large)
Launch date: July 8, 1994
Source: France (FR)
Launch site: FRENCH GUIANA (FRGUI)

Note: This is a ROCKET BODY
aabbcc
Your satellite tracking list
Your tracking list is empty




NASA's NSSDC Master Catalog

Two Line Element Set (TLE):
1 23177U 94040C   21291.40549109  .00000090  00000-0  20153-3 0  9997
2 23177   7.6350  86.3740 7207333  39.7236 355.2904  2.29712484225024
Source of the keplerian elements: AFSPC